Alajuela, Costa Rica

2:22 AM CST on January 24, 2018 (GMT -0600)
Alajuela

Weather History for 78762 - December, 2013

Change the Weather History Date:

Tuesday, December 31, 2013

  Actual Average Record
Temperature  
Mean Temperature 74 °F -  
Max Temperature 83 °F 80 °F - ()
Min Temperature 64 °F 63 °F - ()
Cooling Degree Days 8    
Growing Degree Days 24 (Base 50)    
Moisture  
Dew Point 57 °F    
Average Humidity 56    
Maximum Humidity 73    
Minimum Humidity 32    
Precipitation  
Precipitation 0.00 in 0.01 in - ()
Sea Level Pressure  
Sea Level Pressure 29.96 in    
Wind  
Wind Speed 12 mph ()    
Max Wind Speed 30 mph    
Max Gust Speed 31 mph    
Visibility 8.0 miles    
Events      
T = Trace of Precipitation, MM = Missing Value Source: Averaged Metar Reports

Daily Weather History Graph

Daily Weather History Graph

Search for Another Location

Airport or City:

Trip Planner

Search our weather history database for the weather conditions in past years. The results will help you decide how hot, cold, wet, or windy it might be!

Date:

Astronomy

Dec. 31, 2013 Rise Set
Actual Time 5:53 AM CST 5:26 PM CST
Civil Twilight 5:30 AM CST 5:49 PM CST
Nautical Twilight 5:04 AM CST 6:15 PM CST
Astronomical Twilight 4:38 AM CST 6:41 PM CST
Moon 4:53 AM CST (12/31) 4:53 PM CST (12/31)
Length of Visible Light 12h 18m
Length of Day
11h 33m
Waning Crescent, 1% of the Moon is Illuminated
Dec 31
Waning Crescent
Jan 1
New
Jan 7
First Quarter
Jan 15
Full
Jan 23
Last Quarter

Hourly Weather History & Observations

Time (CST) Temp. Heat Index Dew Point Humidity Pressure Visibility Wind Dir Wind Speed Gust Speed Precip Events Conditions
12:00 AM 70 °F - 57 °F 55% 29.81 in 12 mi East 11.5 mph - -   Scattered Clouds
12:00 AM 69.8 °F - 57.2 °F 64% 30.00 in - East 11.5 mph 23.0 mph N/A   Clear
1:00 AM 69.8 °F - 59.0 °F 68% 29.98 in - East 12.7 mph 25.3 mph N/A   Clear
2:00 AM 68.0 °F - 57.2 °F 68% 29.96 in - ESE 11.5 mph 23.0 mph N/A   Clear
3:00 AM 68 °F - 57 °F 60% 29.78 in 12 mi ESE 11.5 mph - -   Scattered Clouds
3:00 AM 68.0 °F - 57.2 °F 68% 29.96 in - ESE 11.5 mph 23.0 mph N/A   Clear
4:00 AM 68.0 °F - 57.2 °F 68% 29.97 in - ENE 8.1 mph - N/A   Clear
5:00 AM 68.0 °F - 59.0 °F 73% 29.99 in - NE 8.1 mph - N/A   Clear
6:00 AM 69 °F - 58 °F 59% 29.84 in 12 mi East 11.5 mph - -   Scattered Clouds
6:00 AM 68.0 °F - 57.2 °F 68% 30.00 in 6.2 mi East 11.5 mph 23.0 mph N/A   Partly Cloudy
7:00 AM 71.6 °F - 59.0 °F 64% 30.01 in 6.2 mi East 13.8 mph 25.3 mph N/A   Partly Cloudy
8:00 AM 73.4 °F - 59.0 °F 61% 30.04 in 6.2 mi East 16.1 mph 31.1 mph N/A   Partly Cloudy
9:00 AM 75 °F - 59 °F 47% 29.89 in 12 mi East 29.9 mph - -   Scattered Clouds
9:00 AM 75.2 °F - 59.0 °F 57% 30.04 in 6.2 mi East 18.4 mph 29.9 mph N/A   Partly Cloudy
10:00 AM 78.8 °F - 57.2 °F 47% 30.05 in 6.2 mi East 16.1 mph 27.6 mph N/A   Partly Cloudy
11:00 AM 80.6 °F 80.5 °F 55.4 °F 42% 30.03 in 6.2 mi East 16.1 mph 27.6 mph N/A   Partly Cloudy
12:00 PM 80 °F - 56 °F 32% 29.86 in 12 mi East 28.8 mph - -   Scattered Clouds
12:00 PM 80.6 °F 80.5 °F 55.4 °F 42% 30.01 in 6.2 mi East 17.3 mph 28.8 mph N/A   Partly Cloudy
1:00 PM 82.4 °F 81.4 °F 53.6 °F 37% 29.98 in 6.2 mi ENE 13.8 mph 25.3 mph N/A   Partly Cloudy
2:00 PM 82.4 °F 82.0 °F 57.2 °F 42% 29.96 in 6.2 mi ENE 13.8 mph 25.3 mph N/A   Partly Cloudy
3:00 PM 80 °F - 56 °F 33% 29.81 in 12 mi East 20.7 mph - -   Scattered Clouds
3:00 PM 80.6 °F 80.5 °F 55.4 °F 42% 29.95 in 6.2 mi East 20.7 mph - N/A   Partly Cloudy
4:00 PM 78.8 °F - 59.0 °F 51% 29.95 in 6.2 mi East 11.5 mph 23.0 mph N/A   Partly Cloudy
5:00 PM 75.2 °F - 59.0 °F 57% 29.96 in 6.2 mi East 11.5 mph 23.0 mph N/A   Partly Cloudy
6:00 PM 73 °F - 58 °F 49% 29.84 in 12 mi East 11.5 mph - -   Scattered Clouds
6:00 PM 73.4 °F - 57.2 °F 57% 29.97 in 6.2 mi East 11.5 mph 23.0 mph N/A   Partly Cloudy
7:00 PM 71.6 °F - 53.6 °F 53% 30.00 in 6.2 mi East 11.5 mph 23.0 mph N/A   Partly Cloudy
8:00 PM 69.8 °F - 59.0 °F 68% 30.01 in 6.2 mi East 11.5 mph 23.0 mph N/A   Partly Cloudy
9:00 PM 71 °F - 58 °F 56% 29.88 in 12 mi East 11.5 mph - -   Scattered Clouds
9:00 PM 71.6 °F - 59.0 °F 64% 30.03 in 6.2 mi East 11.5 mph 23.0 mph N/A   Partly Cloudy
10:00 PM 71.6 °F - 59.0 °F 64% 30.03 in 6.2 mi East 11.5 mph 23.0 mph N/A   Partly Cloudy
11:00 PM 71.6 °F - 57.2 °F 60% 30.00 in 6.2 mi East 13.8 mph - N/A   Partly Cloudy